Lexington Weather

Lexington, Massachusetts, USA

67°F
9/23/2021 3:56am 
  • Lexington Conditions: Few Clouds
  • Temperature: 66.6°F / 19.2°CWarmer 0.4°F than last hour.
  • Dew Point: 65.3°FIncreased 0.4°Fsince last hour.
  • Relative Humidity: 96
  • Wind: Calm, 10-min avg: Calm, gust: 3 mph
  • Barometer: 30.04 in Steady
  • Visibility: 10 miles
  • Rain Today: 0.00 in
  •   

Regional Weather Roundup
for Boston / Norton, MA

        
000
ASUS41 KBOX 211704
RWRBOX

REGIONAL WEATHER ROUNDUP
NATIONAL WEATHER SERVICE BOSTON/NORTON MA
100 PM EDT TUE SEP 21 2021

NOTE:  "FAIR" INDICATES FEW OR NO CLOUDS BELOW 12,000 FEET WITH NO 
SIGNIFICANT WEATHER AND/OR OBSTRUCTIONS TO VISIBILITY.

MAZALL-211800-
EASTERN MASSACHUSETTS
  
CITY           SKY/WX    TMP DP  RH WIND       PRES   REMARKS
BOSTON         MOSUNNY   71  62  73 E9        30.40F                  
BEVERLY        SUNNY     71  62  73 S8        30.40F                  
LAWRENCE       PTSUNNY   70  58  65 VRB3      30.42F                  
BEDFORD        CLOUDY    72  61  68 SW8       30.38F                  
BLUE HILL      NOT AVBL                                               
NORWOOD        PTSUNNY   74  58  57 S9        30.38F                  
MARSHFIELD     SUNNY     72  63  73 E9        30.39F                  
PLYMOUTH       PTSUNNY   74  58  57 SE6       30.39F                  
TAUNTON        MOSUNNY   74  58  57 VRB5      30.38F                  
NEW BEDFORD    SUNNY     75  58  55 VRB5      30.38F                  
$$

MAZALL-211800-
CAPE COD AND THE ISLANDS
  
CITY           SKY/WX    TMP DP  RH WIND       PRES   REMARKS
FALMOUTH       SUNNY     73  61  64 SE12      30.39F                  
HYANNIS        PTSUNNY   73  63  70 SE9       30.38F                  
CHATHAM        PTSUNNY   71  62  73 SE10G20   30.41F                  
PROVINCETOWN   SUNNY     74  64  71 S10       30.40F                  
NANTUCKET      PTSUNNY   74  64  71 SE13      30.39F                  
MARTHAS VNYRD  MOSUNNY   75  61  61 S9        30.38F                  
$$
 
MAZALL-211800-
CENTRAL AND WESTERN MASSACHUSETTS
  
CITY           SKY/WX    TMP DP  RH WIND       PRES   REMARKS
WORCESTER      CLOUDY    66  58  75 S8        30.41F                  
FITCHBURG      PTSUNNY   70  54  56 VRB5      30.40F                  
ORANGE         SUNNY     70  48  45 S10       30.40F                  
SPRINGFIELD    NOT AVBL                                               
WESTFIELD      SUNNY     71  52  50 S7        30.38F                  
NORTH ADAMS    SUNNY     71  49  45 SE12G17   30.35F                  
PITTSFIELD     SUNNY     68  51  54 MISG      30.35F                  
$$
 
RIZALL-211800-
RHODE ISLAND
  
CITY           SKY/WX    TMP DP  RH WIND       PRES   REMARKS
PROVIDENCE     PTSUNNY   74  60  61 S8        30.40S                  
NEWPORT        SUNNY     71  61  70 SE8       30.39S                  
BLOCK ISLAND   SUNNY     70  64  81 E12       30.39                   
SMITHFIELD     PTSUNNY   71  60  68 VRB5      30.40F                  
WESTERLY       SUNNY     70  62  76 E10       30.39S                  
$$
 
CTZALL-211800-
CONNECTICUT
  
CITY           SKY/WX    TMP DP  RH WIND       PRES   REMARKS
BRADLEY INTL   MOSUNNY   71  57  61 SE10      30.38F                  
HARTFORD       PTSUNNY   72  59  63 S7        30.37F                  
BRIDGEPORT     MOSUNNY   72  64  76 E12       30.36F                  
DANBURY        PTSUNNY   73  60  63 E8        30.37F                  
GROTON         PTSUNNY   71  64  78 E10       30.38S                  
NEW HAVEN      PTSUNNY   76  66  71 SE10      30.37F                  
CHESTER        PTSUNNY   72  64  78 VRB7      30.38F                  
MERIDEN        PTSUNNY   71  58  63 SE7       30.37F                  
WILLIMANTIC    CLOUDY    70  60  70 S7        30.39S                  
OXFORD         PTSUNNY   70  59  68 SE9       30.39F                  
$$

MEZ002-015-021-024-NHZ003-005-008-011-012-014-VTZ005-008-211800-
NORTHERN NEW ENGLAND
  
CITY           SKY/WX    TMP DP  RH WIND       PRES   REMARKS
PORTLAND ME    MOSUNNY   67  58  72 S7G18     30.42F                  
BANGOR ME      CLOUDY    68  56  65 S10       30.43S                  
CONCORD NH     MOSUNNY   70  53  54 SE9G18    30.40F                  
MANCHESTER NH  PTSUNNY   70  54  56 S8        30.38F                  
NASHUA NH      PTSUNNY   69  60  73 SE8       30.40F                  
PORTSMOUTH NH  PTSUNNY   70  57  63 SE10      30.42F                  
JAFFREY NH     SUNNY     68  50  52 SE5       30.40F                  
KEENE NH       SUNNY     70  47  43 SW9       30.38F                  
BURLINGTON VT  MOSUNNY   74  52  46 S18G26    30.27F                  
MT. WASHINGTON NOT AVBL                                               
$$

NYZ052-076-211800-
EASTERN NEW YORK
  
CITY           SKY/WX    TMP DP  RH WIND       PRES   REMARKS
ALBANY         PTSUNNY   66  54  65 SE13      30.33F                  
NEW YORK CITY  PTSUNNY   73  58  59 NE13      30.34S                  
$$
 
ANZALL-211800-
MARINE OBSERVATIONS
  
STATION/POSITION TIME  TEMP    WIND        PRES    VSBY  WAVE
                       AIR SEA DIR/SP/G                  HT/PER
                 (UTC) (F)     (DEG/KT/KT) (MB)    (MI)  (FT/S)
BOSTON BUOY      1640      66  110/  4/  6 1029.8F
BUZZARDS BAY     1600          130/ 10/ 11 1030.3F
NANTUCKET SOUND  1640   69 72  110/ 12/ 14 1029.0F
MASS BAY-STELLWA 1604   65     140/  8/ 10 1029.5F  1 7/8  4/11
ISLE OF SHOALS   1600   63      80/  6/  6 1029.7F
S OF BLOCK IS    1626      70                N/A           3/11
$$

......................KEY.........................
  SKY/WX - SKY CONDITION/PRESENT WEATHER
  TMP    - TEMPERATURE IN FAHRENHEIT
  DWPT   - DEWPOINT IN FAHRENHEIT
  RH     - RELATIVE HUMIDITY IN PERCENT
  WIND   - DIRECTION AND SPEED IN MPH
  PRES   - MEAN SEA LEVEL PRESSURE IN INCHES OF HG
  WCI    - WIND CHILL INDEX
  VSB    - VISIBILITY IN MILES
  HX     - HEAT INDEX
  TC     - TEMPERATURE IN CELSIUS
  VRB    - VARIABLE WIND DIRECTION
  N/A    - NOT AVAILABLE
  
      

Other recent Regional Weather Roundups

Thu Sep 23, 3:04am

Thu Sep 23, 2:04am

Thu Sep 23, 1:04am

Thu Sep 23, 12:04am

Wed Sep 22, 11:04pm

Wed Sep 22, 10:04pm

Wed Sep 22, 9:04pm

Wed Sep 22, 8:04pm

Wed Sep 22, 7:04pm

Wed Sep 22, 6:04pm

Wed Sep 22, 5:04pm

Wed Sep 22, 4:04pm

Wed Sep 22, 3:04pm

Wed Sep 22, 2:04pm

Wed Sep 22, 1:04pm

Wed Sep 22, 12:05pm

Wed Sep 22, 11:04am

Wed Sep 22, 10:04am

Wed Sep 22, 9:04am

Wed Sep 22, 8:04am

Wed Sep 22, 7:04am

Wed Sep 22, 6:04am

Wed Sep 22, 5:04am

Wed Sep 22, 4:04am

Wed Sep 22, 3:04am

Wed Sep 22, 2:04am

Wed Sep 22, 1:04am

Wed Sep 22, 12:04am

Tue Sep 21, 11:04pm

Tue Sep 21, 10:04pm

Tue Sep 21, 9:04pm

Tue Sep 21, 8:04pm

Tue Sep 21, 7:04pm

Tue Sep 21, 6:04pm

Tue Sep 21, 5:04pm

Tue Sep 21, 4:04pm

Tue Sep 21, 3:04pm

Tue Sep 21, 2:04pm

Tue Sep 21, 12:04pm

Tue Sep 21, 11:04am

Tue Sep 21, 10:04am

Tue Sep 21, 9:04am

Tue Sep 21, 8:04am

Tue Sep 21, 7:04am

Tue Sep 21, 6:04am

Tue Sep 21, 5:04am

Tue Sep 21, 4:04am

Tue Sep 21, 3:04am

Tue Sep 21, 2:04am

Tue Sep 21, 1:04am

Tue Sep 21, 12:04am

Mon Sep 20, 11:04pm

Mon Sep 20, 10:04pm

Mon Sep 20, 9:04pm

Mon Sep 20, 8:04pm

Mon Sep 20, 7:04pm

Mon Sep 20, 6:04pm

Mon Sep 20, 5:04pm

Mon Sep 20, 4:04pm

Mon Sep 20, 3:04pm

Mon Sep 20, 2:04pm

Mon Sep 20, 1:04pm

Mon Sep 20, 12:04pm

Mon Sep 20, 11:04am

Mon Sep 20, 10:04am

Mon Sep 20, 9:04am

Mon Sep 20, 7:04am

Mon Sep 20, 6:04am

Mon Sep 20, 5:04am

Mon Sep 20, 4:04am

Mon Sep 20, 3:04am

Mon Sep 20, 2:04am

Mon Sep 20, 1:04am

Mon Sep 20, 12:04am

Sun Sep 19, 11:04pm

Sun Sep 19, 10:04pm

Sun Sep 19, 9:04pm

Sun Sep 19, 8:04pm

Sun Sep 19, 7:04pm

Sun Sep 19, 6:04pm

Sun Sep 19, 5:04pm

Sun Sep 19, 4:04pm

Sun Sep 19, 3:04pm

Sun Sep 19, 2:05pm

Sun Sep 19, 1:04pm

Sun Sep 19, 12:04pm

Sun Sep 19, 11:04am

Sun Sep 19, 10:05am

Sun Sep 19, 9:04am

Sun Sep 19, 8:04am

Sun Sep 19, 7:04am

Sun Sep 19, 6:04am

Sun Sep 19, 5:04am

Sun Sep 19, 4:04am

Sun Sep 19, 3:04am

Sun Sep 19, 2:04am

Sun Sep 19, 1:04am

Sun Sep 19, 12:04am

Sat Sep 18, 11:05pm

Sat Sep 18, 10:04pm

Sat Sep 18, 9:04pm

Sat Sep 18, 8:04pm

Sat Sep 18, 7:04pm

Sat Sep 18, 6:04pm

Sat Sep 18, 5:04pm

Sat Sep 18, 4:04pm

Sat Sep 18, 3:04pm

Sat Sep 18, 2:04pm

Sat Sep 18, 1:04pm

Sat Sep 18, 12:04pm

Sat Sep 18, 11:04am

Sat Sep 18, 10:04am

Sat Sep 18, 9:04am

Sat Sep 18, 8:04am

Sat Sep 18, 7:04am

Sat Sep 18, 6:04am

Sat Sep 18, 5:04am

Sat Sep 18, 4:04am

Sat Sep 18, 3:04am

Sat Sep 18, 2:04am

Sat Sep 18, 1:04am

Sat Sep 18, 12:04am

Fri Sep 17, 11:04pm

Fri Sep 17, 10:04pm

Fri Sep 17, 9:04pm

Fri Sep 17, 8:04pm

Fri Sep 17, 7:04pm

Fri Sep 17, 6:04pm

Fri Sep 17, 5:04pm

Fri Sep 17, 4:04pm

Fri Sep 17, 3:04pm

Fri Sep 17, 2:04pm

Fri Sep 17, 1:04pm

Fri Sep 17, 12:05pm

Fri Sep 17, 11:04am

Fri Sep 17, 10:04am

Fri Sep 17, 9:04am

Fri Sep 17, 8:04am

Fri Sep 17, 7:04am

Fri Sep 17, 6:04am

Fri Sep 17, 5:04am

Fri Sep 17, 4:04am

Fri Sep 17, 3:04am

Fri Sep 17, 2:04am

Fri Sep 17, 1:04am

Fri Sep 17, 12:04am

Thu Sep 16, 11:04pm

Thu Sep 16, 10:04pm

Thu Sep 16, 9:04pm

Thu Sep 16, 8:04pm

Thu Sep 16, 7:04pm

Thu Sep 16, 6:04pm

Thu Sep 16, 5:04pm

Thu Sep 16, 4:04pm

Thu Sep 16, 3:04pm

Thu Sep 16, 2:04pm

Thu Sep 16, 1:05pm

Thu Sep 16, 12:04pm

Thu Sep 16, 11:05am

Thu Sep 16, 10:05am

Thu Sep 16, 9:04am

Thu Sep 16, 8:04am

Thu Sep 16, 7:04am

Thu Sep 16, 6:04am

Thu Sep 16, 5:04am

Thu Sep 16, 4:04am

Meta data:

ID: 9c48f0c9-78e7-4c21-9e29-017f48fe86bd
Link: https://api.weather.gov/products/9c48f0c9-78e7-4c21-9e29-017f48fe86bd